Location: Nakusp
(50.2330°N, 117.8000°W)
Time: 01:31:45
(UTC-07:00)

Cosmos 1939 Rocket - Visible Passes

Search period start: 28 May 2017 00:00
Search period end: 07 June 2017 00:00
Orbit: 534 x 585 km, 97.5° (Epoch: 27 May)

Date Brightness Start Highest point End Pass type
(mag) Time Alt. Az. Time Alt. Az. Time Alt. Az.
28 May 5.6 22:19:21 10° WSW 22:20:46 12° W 22:22:12 10° WNW visible
29 May 5.6 22:18:00 10° WSW 22:19:32 12° W 22:21:06 10° WNW visible
30 May 5.6 22:16:39 10° WSW 22:18:19 12° W 22:19:59 10° WNW visible
31 May 5.6 22:15:19 10° WSW 22:17:05 13° W 22:18:52 10° WNW visible
01 Jun 5.6 22:13:59 10° WSW 22:15:52 13° W 22:17:45 10° WNW visible
02 Jun 5.5 22:12:39 10° WSW 22:14:37 13° W 22:16:37 10° WNW visible
03 Jun 5.5 22:11:20 10° WSW 22:13:24 14° W 22:15:29 10° NW visible
04 Jun 5.5 22:10:01 10° WSW 22:12:10 14° W 22:14:20 10° NW visible
05 Jun 5.5 22:08:41 10° SW 22:10:55 15° W 22:13:11 10° NW visible
06 Jun 5.5 22:07:22 10° SW 22:09:42 15° W 22:12:02 10° NW visible
